Flight Track Log - Related Links

Times and Time Zones

All times are in EDT time to prevent confusion due to time zone crossing. See the VH-KDK flight status page for this flight to view local times or setup timezone preferences in your user account.

Time Position Orientation Groundspeed Altitude Reporting Facility
EDT Latitude Longitude Course Direction KTS MPH feet Rate Location/Type
Tue 04:49:39 AM -21.1977 149.1969 174° South 147 169 1,600  Level Aus ATC (RADAR)
Tue 04:50:29 AM -21.2288 149.2003 162° South 139 160 3,300 1,771 Climbing Aus ATC (RADAR)
Tue 04:51:24 AM -21.2630 149.2121 164° South 140 161 4,700 1,314 Climbing Aus ATC (RADAR)
Tue 04:52:14 AM -21.2953 149.2220 166° South 145 167 5,600 1,200 Climbing Aus ATC (RADAR)
Tue 04:53:14 AM -21.3397 149.2342 163° South 164 189 6,900 1,320 Climbing Aus ATC (RADAR)
Tue 04:53:54 AM -21.3690 149.2437 164° South 166 191 7,800 1,286 Climbing Aus ATC (RADAR)
Tue 04:54:24 AM -21.3918 149.2507 162° South 169 194 8,400 1,200 Climbing Aus ATC (RADAR)
Tue 04:55:19 AM -21.4342 149.2656 166° South 177 204 9,500 1,200 Climbing Aus ATC (RADAR)
Tue 04:56:09 AM -21.4733 149.2761 162° South 175 201 10,500 1,154 Climbing Aus ATC (RADAR)
Tue 04:57:29 AM -21.5364 149.2983 168° South 174 200 12,000 1,062 Climbing Aus ATC (RADAR)
Tue 04:58:19 AM -21.5776 149.3074 164° South 175 201 12,800 600 Climbing Aus ATC (RADAR)
Tue 04:59:19 AM -21.6265 149.3226 165° South 189 217 13,100 189 Climbing Aus ATC (RADAR)
Tue 04:59:54 AM -21.6595 149.3320 165° South 209 241 13,100  Level Aus ATC (RADAR)
Tue 05:00:38 AM -21.7045 149.3446 163° South 222 255 13,100  Level Aus ATC (RADAR)
Tue 05:01:17 AM -21.7394 149.3561 165° South 223 257 13,100  Level Aus ATC (RADAR)
Tue 05:02:47 AM -21.8250 149.3801 164° South 235 270 13,100  Level Aus ATC (RADAR)
Tue 05:03:38 AM -21.8771 149.3958 165° South 233 268 13,100  Level Aus ATC (RADAR)
Tue 05:04:39 AM -21.9407 149.4147 164° South 238 274 13,100  Level Aus ATC (RADAR)
Tue 05:05:19 AM -21.9829 149.4281 164° South 239 275 13,100  Level Aus ATC (RADAR)
Tue 05:06:18 AM -22.0406 149.4457 165° South 236 272 13,100  Level Aus ATC (RADAR)
Tue 05:07:25 AM -22.1036 149.4639 163° South 235 270 13,100  Level Aus ATC (RADAR)
Tue 05:07:58 AM -22.1346 149.4742 165° South 232 267 13,100  Level Aus ATC (RADAR)
Tue 05:08:53 AM -22.1924 149.4914 164° South 234 269 13,100  Level Aus ATC (RADAR)
Tue 05:09:39 AM -22.2448 149.5079 165° South 233 268 13,100  Level Aus ATC (RADAR)
Tue 05:10:17 AM -22.2933 149.5219 163° South 238 274 13,100  Level Aus ATC (RADAR)
Tue 05:11:11 AM -22.3665 149.5455 163° South 235 270 13,100  Level Aus ATC (RADAR)
Tue 05:12:19 AM -22.4398 149.5694 161° South 235 270 13,100  Level Aus ATC (RADAR)
Tue 05:12:59 AM -22.4821 149.5850 145° Southeast 240 276 13,100  Level Aus ATC (RADAR)
Tue 05:13:35 AM -22.5150 149.6095 137° Southeast 248 285 13,100  Level Aus ATC (RADAR)
Tue 05:14:08 AM -22.5400 149.6345 136° Southeast 245 282 13,100  Level Aus ATC (RADAR)
Tue 05:14:55 AM -22.5732 149.6691 136° Southeast 247 284 13,100  Level Aus ATC (RADAR)
Tue 05:15:34 AM -22.6019 149.6986 137° Southeast 245 282 13,100  Level Aus ATC (RADAR)
Tue 05:16:22 AM -22.6563 149.7528 138° Southeast 244 281 13,100  Level Aus ATC (RADAR)
Tue 05:17:27 AM -22.7101 149.8060 138° Southeast 241 277 13,100  Level Aus ATC (RADAR)
Tue 05:17:58 AM -22.7353 149.8306 139° Southeast 241 277 13,100  Level Aus ATC (RADAR)
Tue 05:18:48 AM -22.7775 149.8711 137° Southeast 241 277 13,100  Level Aus ATC (RADAR)
Tue 05:19:37 AM -22.8187 149.9123 138° Southeast 239 275 13,100  Level Aus ATC (RADAR)
Tue 05:20:17 AM -22.8519 149.9451 138° Southeast 240 276 13,100 -349 Level Aus ATC (RADAR)
Tue 05:21:03 AM -22.8904 149.9822 138° Southeast 245 282 12,600 -1,200 Descending Aus ATC (RADAR)
Tue 05:22:27 AM -22.9717 150.0616 139° Southeast 271 312 10,500 -1,513 Descending Aus ATC (RADAR)
Tue 05:23:02 AM -23.0053 150.0938 136° Southeast 274 315 9,600 -1,600 Descending Aus ATC (RADAR)
Tue 05:23:57 AM -23.0553 150.1464 139° Southeast 271 312 8,100 -1,513 Descending Aus ATC (RADAR)
Tue 05:24:57 AM -23.1075 150.1961 137° Southeast 239 275 6,700 -1,467 Descending Aus ATC (RADAR)
Tue 05:25:27 AM -23.1302 150.2190 137° Southeast 221 254 5,900 -1,500 Descending Aus ATC (RADAR)
Tue 05:26:17 AM -23.1642 150.2535 137° Southeast 196 226 4,700 -1,263 Descending Aus ATC (RADAR)
Tue 05:27:02 AM -23.1907 150.2800 138° Southeast 168 193 3,900 -629 Descending Aus ATC (RADAR)
Tue 05:28:21 AM -23.2374 150.3260 138° Southeast 171 197 3,400 -391 Descending Aus ATC (RADAR)
Tue 05:29:20 AM -23.2739 150.3621 137° Southeast 175 201 3,000 -480 Descending Aus ATC (RADAR)
Tue 05:30:01 AM -23.2960 150.3844 136° Southeast 162 186 2,600 -800 Descending Aus ATC (RADAR)
Tue 05:30:35 AM -23.3140 150.4034 116° Southeast 151 174 2,000 -1,143 Descending Aus ATC (RADAR)
Tue 05:31:25 AM -23.3303 150.4399 138° Southeast 155 178 1,000 -914 Descending Aus ATC (RADAR)
Tue 05:32:20 AM -23.3552 150.4645 138° Southeast 133 153 400 -655 Descending Aus ATC (RADAR)

Login

Don't have an account? Register now (free) for customized features, flight alerts, and more!